This demonstration page uses our WeatherBlox Daily Observations layout. Learn more.

Left ArrowRight Arrow

39.08367, -84.50855

Hourly Observations for March 29, 2015

Temp ( °F °C ) Dew Point ( °F °C ) Humidity (%) Winds ( mph kmh ) Pressure ( in mb ) Visibility ( mi km ) Precip ( " mm )
12:53 am 00:53 Clear 25 -3.9 19 -7.2 78 78 N N/A 30.40 1030 10 16 N/A
1:53 am 01:53 Clear 23 -5 18 -7.8 81 81 N N/A 30.40 1029 10 16 N/A
2:53 am 02:53 Clear 23 -5 17 -8.3 78 78 N N/A 30.41 1030 10 16 N/A
3:53 am 03:53 Clear 21 -6.1 18 -7.8 88 88 N N/A 30.40 1029 10 16 N/A
4:53 am 04:53 Clear 20 -6.7 18 -7.8 92 92 N N/A 30.40 1029 10 16 N/A
5:53 am 05:53 Clear 20 -6.7 18 -7.8 92 92 N N/A 30.40 1029 10 16 N/A
6:53 am 06:53 Clear 20 -6.7 17 -8.3 89 89 N N/A 30.40 1029 8 13 N/A
7:53 am 07:53 Sunny 19 -7.2 17 -8.3 92 92 ENE 3 6 30.39 1029 9 14 N/A
8:53 am 08:53 Sunny 27 -2.8 19 -7.2 72 72 SSW 8 13 30.40 1029 10 16 N/A
9:53 am 09:53 Sunny 31 -0.6 18 -7.8 59 59 S 8 13 30.39 1029 10 16 N/A
10:53 am 10:53 Sunny 36 2.2 16 -8.9 44 44 S 14 22 30.36 1028 10 16 N/A
11:53 am 11:53 Sunny 40 4.4 17 -8.3 40 40 S 14 22 30.34 1028 10 16 N/A
12:53 pm 12:53 Sunny 43 6.1 17 -8.3 35 35 SE 12 19 30.30 1026 10 16 N/A
1:53 pm 13:53 Sunny 47 8.3 17 -8.3 30 30 S 16 26 30.25 1024 10 16 N/A
2:53 pm 14:53 Sunny 49 9.4 16 -8.9 27 27 S 14 22 30.18 1022 10 16 N/A
3:53 pm 15:53 Sunny 49 9.4 15 -9.4 26 26 S 15 24 30.13 1020 10 16 N/A
4:53 pm 16:53 Mostly Cloudy 50 10 15 -9.4 25 25 S 16 26 30.04 1017 10 16 N/A
5:53 pm 17:53 Mostly Cloudy 51 10.6 16 -8.9 25 25 S 9 15 30.00 1016 10 16 N/A
6:53 pm 18:53 Cloudy 52 11.1 15 -9.4 23 23 S 12 19 29.96 1014 10 16 N/A
7:53 pm 19:53 Cloudy 52 11.1 17 -8.3 25 25 WSW 10 17 30.02 1017 10 16 N/A
8:53 pm 20:53 Cloudy with Light Rain 50 10 22 -5.6 33 33 S 9 15 29.96 1015 10 16 N/A
9:53 pm 21:53 Cloudy with Rain 46 7.8 34 1.1 63 63 SW 7 11 29.94 1014 6 10 0.04 1.02
10:53 pm 22:53 Cloudy with Light Rain 45 7.2 37 2.8 74 74 NW 5 7 30.02 1017 10 16 0.07 1.78
11:53 pm 23:53 Cloudy 42 5.6 40 4.4 92 92 SSW 6 9 30.01 1016 10 16 N/A

Powered by AerisWeather